Date String (YYYY-MM-DD hh:mm:ss) UTC,Instrument flags,Ambient pressure (hPa),Sample flow (lpm),Bypass flow (lpm),Sample temperature (°C),Ambient temperature (°C),ASC tube jacket temperature (°C),LED temperature (°C),Box temperature (°C),Sample RH (%),Span deviation,Mass concentration (μg/m³),Mass concentration (μg/m³),Mass concentration (μg/m³)
DateTimeUTC,F1_M11,P_M11,Q1_M11,Q2_M11,T1_M11,T2_M11,T3_M11,T4_M11,T5_M11,U1_M11,ZSPAN_M11,X0_M11,X2_M11,X1_M11
2022-06-25 13:00:00,,0834.7,5.01,0.00,30.0,28.8,00.0,38.9,31.8,24.8,0000.0,0007.58,0002.80,0001.83
2022-06-25 13:01:00,,0834.7,5.00,0.00,30.0,28.8,00.0,38.9,31.8,24.8,0000.0,0007.52,0002.73,0001.77
2022-06-25 13:02:00,,0834.8,4.99,0.00,30.0,28.8,00.0,38.9,31.7,24.9,0000.0,0006.82,0002.65,0001.73
2022-06-25 13:03:00,,0834.8,4.99,0.00,30.0,28.8,00.0,38.9,31.7,24.9,0000.0,0007.02,0002.57,0001.67
2022-06-25 13:04:00,,0834.8,5.01,0.00,30.0,28.8,00.0,38.9,31.7,24.7,0000.0,0007.63,0002.50,0001.65
2022-06-25 13:05:00,,0834.8,5.01,0.00,30.0,28.8,00.0,38.9,31.7,24.6,0000.0,0007.65,0002.47,0001.64
2022-06-25 13:06:00,,0834.9,4.99,0.00,30.0,28.8,00.0,38.9,31.8,24.7,0000.0,0007.50,0002.40,0001.63
2022-06-25 13:07:00,,0834.9,5.00,0.00,30.0,28.8,00.0,38.9,31.8,24.8,0000.0,0007.66,0002.39,0001.61
2022-06-25 13:08:00,,0834.9,5.01,0.00,30.0,28.8,00.0,38.9,31.8,24.6,0000.0,0007.48,0002.33,0001.60
2022-06-25 13:09:00,,0835.0,5.00,0.00,30.0,28.9,00.0,38.9,31.8,24.7,0000.0,0007.49,0002.30,0001.57
2022-06-25 13:10:00,,0834.9,5.00,0.00,30.0,28.9,00.0,38.9,31.8,24.6,0000.0,0007.43,0002.28,0001.54
2022-06-25 13:11:00,,0834.9,5.01,0.00,30.0,28.9,00.0,38.9,31.8,24.4,0000.0,0007.46,0002.27,0001.52
2022-06-25 13:12:00,,0835.0,5.00,0.00,30.0,28.8,00.0,38.9,31.7,24.0,0000.0,0007.49,0002.28,0001.50
2022-06-25 13:13:00,,0835.0,5.00,0.00,30.0,28.8,00.0,38.9,31.7,23.8,0000.0,0008.30,0002.30,0001.47
2022-06-25 13:14:00,,0835.0,5.00,0.00,30.0,28.8,00.0,38.9,31.7,23.6,0000.0,0008.00,0002.32,0001.43
2022-06-25 13:15:00,,0835.0,5.00,0.00,30.0,28.8,00.0,38.9,31.8,23.7,0000.0,0007.45,0002.30,0001.40
2022-06-25 13:16:00,,0835.0,5.00,0.00,30.0,28.8,00.0,38.9,31.7,23.7,0000.0,0007.48,0002.20,0001.36
2022-06-25 13:17:00,,0835.1,5.00,0.00,30.0,28.9,00.0,38.9,31.8,23.4,0000.0,0007.73,0002.14,0001.32
2022-06-25 13:18:00,,0835.1,5.00,0.00,30.0,28.9,00.0,38.9,31.8,23.3,0000.0,0007.71,0002.06,0001.30
2022-06-25 13:19:00,,0835.0,5.00,0.00,30.0,28.9,00.0,38.8,31.8,23.2,0000.0,0007.99,0002.03,0001.28
2022-06-25 13:20:00,,0835.0,5.00,0.00,30.0,28.9,00.0,38.8,31.7,23.1,0000.0,0008.12,0002.03,0001.26
2022-06-25 13:21:00,,0835.0,5.00,0.00,30.0,28.9,00.0,38.8,31.7,23.1,0000.0,0008.26,0001.99,0001.24
2022-06-25 13:22:00,,0835.0,5.00,0.00,30.0,28.9,00.0,38.8,31.7,23.2,0000.0,0008.19,0001.93,0001.22
2022-06-25 13:23:00,,0835.1,5.00,0.00,30.0,28.9,00.0,38.8,31.7,23.4,0000.0,0007.85,0001.92,0001.21
2022-06-25 13:24:00,,0835.1,5.01,0.00,30.0,28.9,00.0,38.8,31.8,23.1,0000.0,0006.86,0001.88,0001.19
2022-06-25 13:25:00,,0835.2,5.00,0.00,30.0,28.9,00.0,38.8,31.8,22.8,0000.0,0007.24,0001.84,0001.19
2022-06-25 13:26:00,,0835.1,5.00,0.00,30.0,28.9,00.0,38.9,31.8,22.6,0000.0,0007.30,0001.84,0001.19
2022-06-25 13:27:00,,0835.2,5.01,0.00,30.0,28.9,00.0,38.9,31.7,22.5,0000.0,0007.20,0001.86,0001.18
2022-06-25 13:28:00,,0835.2,4.99,0.00,30.0,28.9,00.0,38.9,31.8,22.4,0000.0,0006.70,0001.89,0001.18
2022-06-25 13:29:00,,0835.3,5.01,0.00,30.0,28.9,00.0,38.9,31.8,22.3,0000.0,0006.20,0001.91,0001.17
2022-06-25 13:30:00,,0835.4,5.00,0.00,30.0,28.9,00.0,38.9,31.8,22.3,0000.0,0006.06,0001.95,0001.16
2022-06-25 13:31:00,,0835.4,4.99,0.00,30.0,28.9,00.0,38.9,31.8,22.3,0000.0,0005.67,0001.96,0001.17
2022-06-25 13:32:00,,0835.4,5.00,0.00,30.0,28.9,00.0,38.9,31.8,22.2,0000.0,0005.38,0002.06,0001.18
2022-06-25 13:33:00,,0835.4,5.00,0.00,30.0,28.9,00.0,38.9,31.8,22.1,0000.0,0005.32,0002.08,0001.19
2022-06-25 13:34:00,,0835.4,5.00,0.00,30.0,28.9,00.0,38.9,31.8,22.1,0000.0,0005.27,0002.07,0001.19
2022-06-25 13:35:00,,0835.5,5.00,0.00,30.0,28.9,00.0,38.9,31.8,22.1,0000.0,0005.58,0002.09,0001.19
2022-06-25 13:36:00,,0835.5,5.00,0.00,30.0,28.9,00.0,38.9,31.8,22.1,0000.0,0005.32,0002.09,0001.18
2022-06-25 13:37:00,,0835.5,5.00,0.00,30.0,28.9,00.0,38.9,31.8,22.0,0000.0,0005.35,0002.12,0001.18
2022-06-25 13:38:00,,0835.5,5.00,0.00,30.0,28.9,00.0,38.9,31.8,21.9,0000.0,0005.03,0002.06,0001.18
2022-06-25 13:39:00,,0835.6,5.00,0.00,30.0,28.9,00.0,38.9,31.8,21.7,0000.0,0006.53,0002.03,0001.18
2022-06-25 13:40:00,,0835.6,4.99,0.00,30.0,28.9,00.0,38.9,31.8,21.7,0000.0,0006.46,0001.99,0001.19
2022-06-25 13:41:00,,0835.6,5.00,0.00,30.0,28.9,00.0,38.9,31.8,21.8,0000.0,0006.60,0001.99,0001.19
2022-06-25 13:42:00,,0835.6,5.00,0.00,30.0,28.9,00.0,38.9,31.8,21.8,0000.0,0007.04,0002.00,0001.18
2022-06-25 13:43:00,,0835.6,4.99,0.00,30.0,29.0,00.0,38.9,31.8,21.9,0000.0,0007.33,0001.92,0001.17
2022-06-25 13:44:00,,0835.7,5.01,0.00,30.0,29.0,00.0,38.9,31.8,21.6,0000.0,0007.44,0001.93,0001.16
2022-06-25 13:45:00,,0835.7,5.00,0.00,30.0,29.0,00.0,38.9,31.8,21.7,0000.0,0007.39,0001.89,0001.15
2022-06-25 13:46:00,,0835.6,5.00,0.00,30.0,29.0,00.0,38.9,31.8,21.6,0000.0,0007.03,0001.82,0001.15
2022-06-25 13:47:00,,0835.7,5.00,0.00,30.0,29.0,00.0,38.9,31.8,21.4,0000.0,0006.24,0001.81,0001.14
2022-06-25 13:48:00,,0835.7,4.98,0.00,30.0,29.0,00.0,38.9,31.9,21.4,0000.0,0006.21,0001.78,0001.14
2022-06-25 13:49:00,,0835.7,5.01,0.00,30.0,29.0,00.0,38.9,31.9,21.5,0000.0,0006.36,0001.85,0001.15
2022-06-25 13:50:00,,0835.6,5.01,0.00,30.0,29.0,00.0,38.9,31.9,21.5,0000.0,0005.30,0001.91,0001.14
2022-06-25 13:51:00,,0835.6,5.00,0.00,30.0,29.0,00.0,38.9,31.9,21.2,0000.0,0005.15,0001.94,0001.14
2022-06-25 13:52:00,,0835.6,5.00,0.00,30.0,29.0,00.0,38.9,31.9,21.0,0000.0,0005.01,0001.93,0001.15
2022-06-25 13:53:00,,0835.6,4.99,0.00,30.0,29.0,00.0,38.9,31.9,21.0,0000.0,0004.46,0001.91,0001.15
2022-06-25 13:54:00,,0835.6,5.00,0.00,30.0,29.0,00.0,38.9,31.9,21.0,0000.0,0003.88,0001.90,0001.15
2022-06-25 13:55:00,,0835.6,5.00,0.00,30.0,29.0,00.0,38.9,31.8,20.9,0000.0,0003.74,0001.87,0001.15
2022-06-25 13:56:00,,0835.6,4.99,0.00,30.0,29.0,00.0,38.9,31.9,20.9,0000.0,0004.21,0001.92,0001.16
2022-06-25 13:57:00,,0835.7,5.00,0.00,30.0,29.0,00.0,38.9,31.9,21.1,0000.0,0004.65,0001.95,0001.16
2022-06-25 13:58:00,,0835.7,5.00,0.00,30.0,29.0,00.0,38.9,31.9,21.1,0000.0,0004.72,0001.99,0001.18
2022-06-25 13:59:00,,0835.7,5.00,0.00,30.0,29.0,00.0,38.9,31.9,21.0,0000.0,0004.67,0001.98,0001.18
